Location: Moy Burn
(57.3833°N, 4.0667°W)
Time: 09:19:26
(UTC+00:00)

Meteor 1-13 Rocket - Pass Details

Date: 08 August 2020
Orbit: 830 x 913 km, 81.3° (Epoch: 18 September)

Event Time Altitude Azimuth Distance (km) Brightness Sun altitude
Rises 22:31:23 0° 344° (NNW) 3,415 9.1 -13.3°
Reaches altitude 10° 22:33:49 10° 346° (NNW) 2,468 8.0 -13.5°
Maximum altitude 22:39:25 81° 73° (ENE) 851 4.2 -13.8°
Enters shadow 22:43:16 21° 160° (SSE) 1,809 5.3 -14.0°
